Corpus Christi, TX

5:32 AM CST on December 07, 2016 (GMT -0600)
North Padre Island

Weather History for KOPM - April, 2013

Change the Weather History Date:

Saturday, April 6, 2013

  Actual Average (KHRL) Record (KHRL)
Temperature  
Mean Temperature 68 °F 74 °F  
Max Temperature 69 °F 84 °F 97 °F (1956)
Min Temperature 66 °F 63 °F 40 °F (1897)
Degree Days  
Heating Degree Days 0 1  
Month to date heating degree days 6  
Since 1 July heating degree days 620  
Cooling Degree Days 2 9  
Month to date cooling degree days 51  
Year to date cooling degree days 346  
Growing Degree Days 18 (Base 50)    
Moisture  
Dew Point 61 °F    
Average Humidity 80    
Maximum Humidity 88    
Minimum Humidity 73    
Precipitation  
Precipitation 0.00 in 0.05 in 9.79 in (1991)
Month to date precipitation 0.29  
Year to date precipitation 4.05  
Sea Level Pressure  
Sea Level Pressure 30.00 in    
Wind  
Wind Speed 14 mph (SE)    
Max Wind Speed 18 mph    
Max Gust Speed -    
Visibility 9 miles    
Events      
T = Trace of Precipitation, MM = Missing Value Source: NWS Daily Summary

Daily Weather History Graph

Daily Weather History Graph

Search for Another Location

Airport or City:

Trip Planner

Search our weather history database for the weather conditions in past years. The results will help you decide how hot, cold, wet, or windy it might be!

Date:

Astronomy

Apr. 06, 2013 Rise Set
Actual Time 7:12 AM CDT 7:47 PM CDT
Civil Twilight 6:49 AM CDT 8:11 PM CDT
Nautical Twilight 6:21 AM CDT 8:38 PM CDT
Astronomical Twilight 5:54 AM CDT 9:06 PM CDT
Moon 4:37 AM CDT (4/6) 4:34 PM CDT (4/6)
Length of Visible Light 13h 21m
Length of Day
12h 34m
Waning Crescent, 15% of the Moon is Illuminated
Apr 6
Waning Crescent
Apr 10
New
Apr 18
First Quarter
Apr 25
Full
May 2
Last Quarter

Hourly Weather History & Observations

Time (CDT) Temp. Dew Point Humidity Pressure Visibility Wind Dir Wind Speed Gust Speed Precip Events Conditions
12:15 AM 66.2 °F 57.2 °F 73% 30.10 in 10.0 mi ESE 15.0 mph - N/A   Clear
12:35 AM 66.2 °F 57.2 °F 73% 30.10 in 10.0 mi ESE 15.0 mph - N/A   Clear
12:55 AM 66.2 °F 57.2 °F 73% 30.09 in 10.0 mi ESE 11.5 mph - N/A   Clear
1:15 AM 66.2 °F 59.0 °F 78% 30.08 in 10.0 mi ESE 15.0 mph - N/A   Clear
1:35 AM 66.2 °F 59.0 °F 78% 30.08 in 10.0 mi ESE 13.8 mph - N/A   Clear
1:55 AM 66.2 °F 59.0 °F 78% 30.07 in 10.0 mi ESE 15.0 mph - N/A   Partly Cloudy
2:15 AM 66.2 °F 59.0 °F 78% 30.07 in 10.0 mi ESE 15.0 mph - N/A   Clear
2:35 AM 66.2 °F 59.0 °F 78% 30.05 in 10.0 mi ESE 15.0 mph - N/A   Clear
2:55 AM 66.2 °F 59.0 °F 78% 30.04 in 10.0 mi ESE 13.8 mph - N/A   Clear
3:15 AM 66.2 °F 59.0 °F 78% 30.04 in 10.0 mi ESE 13.8 mph - N/A   Partly Cloudy
3:35 AM 66.2 °F 59.0 °F 78% 30.04 in 10.0 mi ESE 13.8 mph - N/A   Scattered Clouds
3:55 AM 66.2 °F 59.0 °F 78% 30.03 in 10.0 mi SE 15.0 mph - N/A   Mostly Cloudy
4:15 AM 66.2 °F 59.0 °F 78% 30.02 in 10.0 mi SE 16.1 mph - N/A   Mostly Cloudy
4:35 AM 66.2 °F 59.0 °F 78% 30.02 in 10.0 mi SE 15.0 mph - N/A   Overcast
4:55 AM 66.2 °F 59.0 °F 78% 30.02 in 10.0 mi SE 16.1 mph - N/A   Overcast
5:15 AM 66.2 °F 59.0 °F 78% 30.02 in 10.0 mi SE 15.0 mph - N/A   Overcast
5:35 AM 66.2 °F 59.0 °F 78% 30.03 in 10.0 mi SE 15.0 mph - N/A   Overcast
5:55 AM 66.2 °F 60.8 °F 83% 30.04 in 10.0 mi SE 12.7 mph - N/A   Overcast
6:15 AM 66.2 °F 60.8 °F 83% 30.04 in 10.0 mi SSE 13.8 mph - N/A   Overcast
6:35 AM 66.2 °F 60.8 °F 83% 30.04 in 10.0 mi SE 13.8 mph - N/A   Scattered Clouds
6:55 AM 66.2 °F 60.8 °F 83% 30.04 in 10.0 mi SE 15.0 mph - N/A   Clear
7:15 AM 66.2 °F 60.8 °F 83% 30.04 in 9.0 mi SE 13.8 mph - N/A   Clear
7:35 AM 66.2 °F 60.8 °F 83% 30.03 in 10.0 mi SE 15.0 mph - N/A   Clear
7:55 AM 66.2 °F 60.8 °F 83% 30.04 in 10.0 mi SE 16.1 mph - N/A   Clear
8:15 AM 66.2 °F 60.8 °F 83% 30.03 in 9.0 mi SE 16.1 mph - N/A   Clear
8:35 AM 66.2 °F 60.8 °F 83% 30.03 in 9.0 mi SE 16.1 mph - N/A   Clear
8:55 AM 66.2 °F 60.8 °F 83% 30.04 in 9.0 mi SE 16.1 mph - N/A   Clear
9:15 AM 68.0 °F 60.8 °F 78% 30.02 in 9.0 mi ESE 18.4 mph - N/A   Clear
9:35 AM 68.0 °F 60.8 °F 78% 30.02 in 10.0 mi SE 18.4 mph - N/A   Clear
9:55 AM 68.0 °F 60.8 °F 78% 30.04 in 9.0 mi SE 16.1 mph - N/A   Clear
10:15 AM 68.0 °F 60.8 °F 78% 30.04 in 9.0 mi SSE 18.4 mph - N/A   Clear
10:35 AM 68.0 °F 60.8 °F 78% 30.05 in 9.0 mi SE 16.1 mph - N/A   Clear
10:55 AM 68.0 °F 60.8 °F 78% 30.04 in 9.0 mi SE 17.3 mph - N/A   Clear
11:15 AM 68.0 °F 60.8 °F 78% 30.05 in 9.0 mi SE 15.0 mph - N/A   Clear
11:35 AM 68.0 °F 60.8 °F 78% 30.05 in 9.0 mi SE 13.8 mph - N/A   Clear
11:55 AM 68.0 °F 60.8 °F 78% 30.05 in 9.0 mi SE 13.8 mph - N/A   Partly Cloudy
12:15 PM 68.0 °F 60.8 °F 78% 30.04 in 9.0 mi SE 13.8 mph - N/A   Partly Cloudy
12:35 PM 68.0 °F 60.8 °F 78% 30.04 in 9.0 mi SE 12.7 mph - N/A   Clear
12:55 PM 68.0 °F 60.8 °F 78% 30.03 in 9.0 mi SE 13.8 mph - N/A   Clear
1:15 PM 68.0 °F 60.8 °F 78% 30.03 in 9.0 mi SE 15.0 mph - N/A   Clear
1:35 PM 68.0 °F 60.8 °F 78% 30.02 in 9.0 mi SE 12.7 mph - N/A   Partly Cloudy
1:55 PM 68.0 °F 62.6 °F 83% 30.00 in 9.0 mi SE 13.8 mph - N/A   Clear
2:15 PM 68.0 °F 62.6 °F 83% 29.99 in 9.0 mi SE 15.0 mph - N/A   Clear
2:35 PM 68.0 °F 62.6 °F 83% 29.99 in 9.0 mi SE 11.5 mph - N/A   Clear
2:55 PM 68.0 °F 62.6 °F 83% 29.98 in 8.0 mi SE 10.4 mph - N/A   Clear
3:15 PM 68.0 °F 62.6 °F 83% 29.97 in 9.0 mi SE 10.4 mph - N/A   Clear
3:35 PM 68.0 °F 62.6 °F 83% 29.97 in 8.0 mi SE 10.4 mph - N/A   Clear
3:55 PM 68.0 °F 62.6 °F 83% 29.95 in 9.0 mi SE 11.5 mph - N/A   Clear
4:15 PM 69.8 °F 62.6 °F 78% 29.95 in 9.0 mi SSE 11.5 mph - N/A   Clear
4:35 PM 69.8 °F 62.6 °F 78% 29.94 in 9.0 mi SSE 12.7 mph - N/A   Clear
4:55 PM 69.8 °F 62.6 °F 78% 29.94 in 9.0 mi SE 11.5 mph - N/A   Clear
5:15 PM 69.8 °F 62.6 °F 78% 29.93 in 9.0 mi SE 12.7 mph - N/A   Clear
5:35 PM 69.8 °F 62.6 °F 78% 29.92 in 9.0 mi SE 12.7 mph - N/A   Clear
5:55 PM 69.8 °F 62.6 °F 78% 29.92 in 8.0 mi SE 12.7 mph - N/A   Clear
6:15 PM 69.8 °F 62.6 °F 78% 29.92 in 9.0 mi SE 12.7 mph - N/A   Clear
6:35 PM 69.8 °F 62.6 °F 78% 29.92 in 9.0 mi SE 12.7 mph - N/A   Clear
6:55 PM 68.0 °F 62.6 °F 83% 29.92 in 9.0 mi SE 12.7 mph - N/A   Clear
7:15 PM 68.0 °F 62.6 °F 83% 29.93 in 9.0 mi SE 11.5 mph - N/A   Clear
7:35 PM 68.0 °F 62.6 °F 83% 29.93 in 9.0 mi SE 11.5 mph - N/A   Clear
7:55 PM 68.0 °F 62.6 °F 83% 29.92 in 9.0 mi SE 12.7 mph - N/A   Clear
8:15 PM 68.0 °F 62.6 °F 83% 29.93 in 10.0 mi SE 12.7 mph - N/A   Clear
8:35 PM 68.0 °F 62.6 °F 83% 29.92 in 10.0 mi ESE 13.8 mph - N/A   Clear
8:55 PM 68.0 °F 62.6 °F 83% 29.93 in 10.0 mi ESE 13.8 mph - N/A   Clear
9:15 PM 68.0 °F 62.6 °F 83% 29.93 in 10.0 mi ESE 13.8 mph - N/A   Clear
9:35 PM 68.0 °F 64.4 °F 88% 29.93 in 10.0 mi ESE 15.0 mph - N/A   Clear
9:55 PM 68.0 °F 64.4 °F 88% 29.94 in 9.0 mi ESE 13.8 mph - N/A   Clear
10:15 PM 68.0 °F 62.6 °F 83% 29.94 in 10.0 mi SE 16.1 mph - N/A   Clear
10:35 PM 68.0 °F 62.6 °F 83% 29.93 in 10.0 mi SE 17.3 mph - N/A   Clear
10:55 PM 68.0 °F 62.6 °F 83% 29.95 in 10.0 mi SE 13.8 mph - N/A   Clear
11:15 PM 68.0 °F 62.6 °F 83% 29.95 in 10.0 mi SE 15.0 mph - N/A   Clear
11:35 PM 68.0 °F 62.6 °F 83% 29.95 in 10.0 mi SE 15.0 mph - N/A   Clear
11:55 PM 68.0 °F 62.6 °F 83% 29.95 in 9.0 mi SE 13.8 mph - N/A   Clear